UAE6 EGLL-OMDB

Flight info

Callsign UAE6
Flight time N/A
Altitude 41000
Route DET L6 DVR UL9 KONAN UL607 KOK DCT REMBA DCT LIRSU DCT KRH DCT UTABA DCT MOMUK DCT GEDSO DCT VEKEN DCT MSR DCT PINDO DCT PAXIS Y707 OBRAN L321 REXUM M872 BDB Y214 RAPMA DCT KUVSO DCT KATIT DCT PEKEM M628 RIGIL G783 ELUDA/N0506F350 G783 ASPED Q308 KIPOK/N0508F340 Q568 IMPED
Aircraft A359/H-SDE2E3GHIJ3J4J5LM1ORWXY/LB1D1

Departure

Time 2026-05-07 20:19
Airport London Heathrow Airport (EGLL)

Arrival

Time N/A
Airport Dubai International Airport (OMDB)
Time Latitude Longitude Altitude Speed Heading
2026-05-07 19:53 51.46839 -0.45829 92 ft 0 kts 360°
2026-05-07 20:06 51.46829 -0.45829 96 ft 4 kts 360°
2026-05-07 20:06 51.46802 -0.45828 93 ft 4 kts 360°
2026-05-07 20:06 51.46780 -0.45828 93 ft 3 kts 358°
2026-05-07 20:07 51.46757 -0.45819 93 ft 4 kts 310°
2026-05-07 20:07 51.46749 -0.45785 94 ft 3 kts 269°
2026-05-07 20:07 51.46749 -0.45742 93 ft 3 kts 269°
2026-05-07 20:07 51.46749 -0.45734 93 ft 0 kts 269°
2026-05-07 20:11 51.46749 -0.45772 94 ft 7 kts 270°
2026-05-07 20:11 51.46750 -0.45881 92 ft 12 kts 271°
2026-05-07 20:12 51.46749 -0.46036 95 ft 15 kts 269°
2026-05-07 20:12 51.46748 -0.46215 96 ft 15 kts 269°
2026-05-07 20:12 51.46748 -0.46393 96 ft 16 kts 270°
2026-05-07 20:12 51.46748 -0.46580 96 ft 17 kts 270°
2026-05-07 20:13 51.46748 -0.46761 96 ft 15 kts 270°
2026-05-07 20:13 51.46748 -0.46944 96 ft 18 kts 270°
2026-05-07 20:13 51.46747 -0.47138 96 ft 15 kts 269°
2026-05-07 20:13 51.46747 -0.47295 97 ft 14 kts 270°
2026-05-07 20:14 51.46746 -0.47437 96 ft 14 kts 269°
2026-05-07 20:14 51.46746 -0.47605 96 ft 16 kts 270°
2026-05-07 20:14 51.46746 -0.47787 96 ft 15 kts 269°
2026-05-07 20:14 51.46744 -0.47938 94 ft 14 kts 270°
2026-05-07 20:15 51.46744 -0.48084 92 ft 13 kts 269°
2026-05-07 20:15 51.46743 -0.48245 92 ft 16 kts 270°
2026-05-07 20:15 51.46743 -0.48431 92 ft 15 kts 269°
2026-05-07 20:15 51.46743 -0.48497 92 ft 0 kts 270°
2026-05-07 20:16 51.46743 -0.48499 92 ft 1 kts 270°
2026-05-07 20:16 51.46743 -0.48510 93 ft 0 kts 270°
2026-05-07 20:16 51.46743 -0.48543 92 ft 7 kts 270°
2026-05-07 20:16 51.46743 -0.48603 92 ft 6 kts 270°
2026-05-07 20:17 51.46742 -0.48677 92 ft 7 kts 264°
2026-05-07 20:17 51.46711 -0.48734 96 ft 7 kts 202°
2026-05-07 20:17 51.46652 -0.48748 94 ft 10 kts 189°
2026-05-07 20:17 51.46581 -0.48780 95 ft 9 kts 197°
2026-05-07 20:18 51.46518 -0.48768 97 ft 10 kts 146°
2026-05-07 20:18 51.46484 -0.48661 96 ft 13 kts 100°
2026-05-07 20:18 51.46479 -0.48209 96 ft 75 kts 90°
2026-05-07 20:18 51.46483 -0.47007 97 ft 138 kts 90°
2026-05-07 20:19 51.46505 -0.45337 592 ft 148 kts 90°
2026-05-07 20:19 51.46526 -0.43656 1227 ft 155 kts 91°
2026-05-07 20:19 51.46325 -0.42032 1838 ft 161 kts 115°
2026-05-07 20:19 51.45784 -0.40293 2184 ft 189 kts 118°
2026-05-07 20:20 51.45126 -0.38282 2448 ft 217 kts 117°
2026-05-07 20:20 51.44465 -0.35961 2749 ft 239 kts 112°
2026-05-07 20:20 51.43871 -0.33410 3297 ft 248 kts 109°
2026-05-07 20:20 51.43292 -0.30776 3984 ft 253 kts 109°
2026-05-07 20:21 51.42754 -0.28074 4662 ft 257 kts 104°
2026-05-07 20:21 51.42395 -0.25671 5257 ft 260 kts 102°
2026-05-07 20:21 51.42007 -0.22821 5796 ft 264 kts 102°
2026-05-07 20:21 51.41721 -0.19902 5996 ft 267 kts 94°
2026-05-07 20:22 51.41651 -0.16984 6002 ft 268 kts 91°
2026-05-07 20:22 51.41621 -0.13996 6001 ft 269 kts 91°
2026-05-07 20:22 51.41596 -0.11000 5999 ft 269 kts 91°
2026-05-07 20:22 51.41572 -0.08006 5995 ft 269 kts 91°
2026-05-07 20:23 51.41547 -0.05010 5996 ft 269 kts 91°
2026-05-07 20:23 51.41522 -0.02012 5997 ft 269 kts 91°
2026-05-07 20:23 51.41498 0.00984 6175 ft 270 kts 91°
2026-05-07 20:23 51.41480 0.04005 6790 ft 272 kts 91°
2026-05-07 20:24 51.41465 0.07058 7479 ft 275 kts 91°
2026-05-07 20:24 51.41456 0.10154 8084 ft 281 kts 91°
2026-05-07 20:24 51.41454 0.13313 8690 ft 286 kts 91°
2026-05-07 20:24 51.41451 0.16518 9388 ft 289 kts 91°
2026-05-07 20:25 51.41447 0.19751 10049 ft 293 kts 91°
2026-05-07 20:25 51.41445 0.23062 10433 ft 305 kts 91°
2026-05-07 20:25 51.41443 0.26509 10675 ft 322 kts 91°
2026-05-07 20:25 51.41442 0.30233 10902 ft 338 kts 91°
2026-05-07 20:26 51.41439 0.34083 11138 ft 353 kts 91°